FW2222 Weather Reports


time (UTC)temp
F
wind
direction
speed
knots
gust
knots
rain 1hr
in
rain 24hr
in
rain mn
in
humidity
%
barometer
mb
20260510170731 67 338 1.7 6.1 0.00 0.16 0.01 59 1100.2
20260510165731 66 334 2.6 6.1 0.00 0.17 0.01 60 1100.2
20260510163728 66 261 0.0 1.7 0.00 0.18 0.01 64 1100.6
20260510162730 65 328 1.7 4.3 0.00 0.19 0.01 67 1100.6
20260510161730 64 349 1.7 3.5 0.00 0.20 0.01 71 1100.5
20260510161630 64 60 1.7 3.5 0.00 0.20 0.01 71 1100.5
20260510160630 63 163 2.6 4.3 0.01 0.20 0.01 70 1100.8
20260510155730 63 144 3.5 4.3 0.01 0.21 0.01 71 1100.8
20260510154730 63 164 1.7 2.6 0.01 0.21 0.01 73 1100.7
20260510152728 62 198 4.3 6.1 0.01 0.22 0.01 76 1100.7
20260510145731 60 189 2.6 4.3 0.00 0.22 0.00 81 1100.6
20260510143729 59 146 3.5 7.0 0.00 0.23 0.00 82 1100.5
20260510143627 59 183 2.6 5.2 0.00 0.23 0.00 83 1100.6
20260510142630 58 159 6.1 7.8 0.00 0.24 0.00 83 1100.7
20260510141629 57 189 4.3 7.8 0.00 0.24 0.00 85 1100.7
20260510140629 57 172 4.3 7.0 0.00 0.25 0.00 85 1100.7
20260510135629 56 175 3.5 4.3 0.00 0.25 0.00 85 1100.9
20260510135529 55 169 5.2 7.0 0.00 0.25 0.00 85 1100.9
20260510133529 53 158 4.3 6.1 0.00 0.26 0.00 83 1101.0
20260510132628 53 152 3.5 4.3 0.00 0.26 0.00 83 1101.0
20260510131628 52 153 3.5 5.2 0.00 0.26 0.00 81 1101.0
20260510125729 51 157 1.7 3.5 0.00 0.27 0.00 80 1100.8
20260510124729 50 157 2.6 2.6 0.00 0.28 0.00 81 1100.8
20260510123731 50 157 2.6 3.5 0.00 0.28 0.00 80 1100.8
20260510122729 50 157 3.5 3.5 0.00 0.28 0.00 81 1100.7
20260510120829 50 157 0.0 0.9 0.00 0.30 0.00 81 1100.7
20260510115828 50 157 0.0 0.0 0.00 0.30 0.00 81 1100.8
20260510114829 50 157 0.0 0.0 0.00 0.30 0.00 81 1100.9
20260510113928 50 157 0.0 0.0 0.00 0.30 0.00 81 1100.8
20260510112929 49 157 0.9 1.7 0.00 0.30 0.00 81 1100.8
20260510111930 49 157 0.9 1.7 0.00 0.31 0.00 80 1100.7
20260510110930 49 157 0.0 0.9 0.00 0.31 0.00 81 1100.4
20260510104929 49 186 0.9 2.6 0.00 0.33 0.00 81 1100.2
20260510103929 49 157 0.0 0.9 0.00 0.34 0.00 81 1100.2
20260510102930 48 157 0.9 0.9 0.00 0.35 0.00 81 1099.8
20260510102027 48 157 0.0 0.0 0.00 0.36 0.00 81 1099.9
20260510101030 48 157 0.0 0.9 0.00 0.37 0.00 81 1099.7
20260510094129 48 157 0.9 1.7 0.00 0.41 0.00 81 1099.1
20260510091131 48 202 0.0 0.0 0.00 0.43 0.00 81 1098.9
20260510090228 48 112 0.0 0.0 0.00 0.43 0.00 81 1098.8
20260510085130 48 157 0.0 0.0 0.00 0.43 0.00 81 1098.8
20260510084128 48 202 0.9 1.7 0.00 0.43 0.00 81 1099.0
20260510082148 47 202 0.0 0.0 0.00 0.43 0.00 81 1099.4
20260510081231 48 202 0.0 0.0 0.00 0.43 0.00 81 1099.5
20260510080230 48 202 0.0 0.0 0.00 0.43 0.00 81 1099.5
20260510074230 48 202 0.0 0.0 0.00 0.43 0.00 81 1099.7
20260510072246 48 202 0.0 0.0 0.00 0.43 0.00 80 1099.5
20260510071330 48 208 0.0 1.7 0.00 0.43 0.00 81 1099.2
20260510070329 48 157 0.9 2.6 0.00 0.43 0.00 81 1099.2
20260510070228 48 157 0.9 2.6 0.00 0.43 0.00 81 1099.2
20260510065228 48 152 0.0 1.7 0.00 0.43 0.00 81 1099.0
20260510063328 48 157 0.9 1.7 0.00 0.43 0.00 81 1098.9
20260510062328 49 157 0.0 0.0 0.00 0.43 0.00 80 1098.9
20260510061330 49 157 0.0 0.0 0.00 0.43 0.00 80 1098.9
20260510060329 49 157 0.0 0.0 0.00 0.43 0.00 80 1099.1
20260510055330 49 157 0.0 0.0 0.00 0.43 0.00 80 1099.4
20260510054329 49 157 0.0 0.0 0.00 0.43 0.00 80 1099.2
20260510053428 49 157 0.0 0.9 0.00 0.43 0.00 80 1099.4
20260510052430 49 157 0.0 0.0 0.00 0.43 0.00 80 1099.4
20260510050428 49 157 0.0 0.9 0.00 0.43 0.00 80 1099.2
20260510045429 49 157 0.0 1.7 0.00 0.43 0.00 79 1099.4
20260510044429 49 157 0.9 1.7 0.00 0.43 0.00 80 1099.5
20260510043431 49 157 0.0 0.0 0.00 0.43 0.00 80 1099.3
20260510042430 49 135 2.6 3.5 0.00 0.43 0.00 79 1099.3
20260510041429 49 135 0.0 0.9 0.00 0.43 0.00 80 1099.5
20260510040428 49 112 0.9 0.9 0.00 0.43 0.00 80 1099.3
20260510035511 49 112 0.0 0.0 0.00 0.43 0.43 80 1099.2
20260510034514 49 112 0.0 0.0 0.00 0.43 0.43 80 1099.5
20260510033516 49 112 0.0 0.0 0.00 0.43 0.43 80 1099.5
20260510032514 49 112 0.0 0.0 0.00 0.43 0.43 80 1099.5
20260510031512 49 180 0.0 0.0 0.00 0.43 0.43 80 1099.5
20260510030514 49 157 1.7 1.7 0.00 0.43 0.43 80 1099.4
20260510025613 49 157 0.0 0.0 0.00 0.43 0.43 80 1099.6
20260510022628 49 198 0.9 1.7 0.00 0.43 0.43 79 1099.4
20260510015813 49 157 1.7 3.5 0.00 0.43 0.43 80 1099.7
20260510014812 49 157 2.6 3.5 0.00 0.43 0.43 79 1099.7
20260510013814 49 157 1.7 2.6 0.00 0.43 0.43 80 1099.9
20260510012913 49 141 1.7 2.6 0.00 0.43 0.43 80 1100.2
20260510011913 49 208 1.7 4.3 0.00 0.43 0.43 80 1099.8
20260510010913 49 174 0.9 2.6 0.00 0.43 0.43 79 1099.7
20260510005912 49 179 0.0 2.6 0.00 0.43 0.43 80 1099.7
20260510005011 49 202 0.0 0.9 0.00 0.43 0.43 80 1099.2
20260510004014 49 167 0.0 0.9 0.00 0.43 0.43 80 1099.1
20260510002013 49 157 1.7 3.5 0.00 0.43 0.43 80 1098.8
20260510001014 49 157 0.0 0.9 0.00 0.43 0.43 80 1098.9
20260510000111 49 157 0.0 0.0 0.00 0.43 0.43 80 1098.8
20260509235113 49 157 0.0 0.0 0.00 0.43 0.43 79 1098.7
20260509234212 49 157 1.7 3.5 0.00 0.43 0.43 80 1098.5
20260509233212 49 143 4.3 6.1 0.00 0.43 0.43 80 1098.7
20260509232212 49 166 2.6 3.5 0.00 0.43 0.43 79 1098.7
20260509231214 50 157 3.5 4.3 0.00 0.43 0.43 80 1098.5
20260509230213 50 157 0.9 2.6 0.00 0.43 0.43 80 1098.7
20260509225312 50 157 0.0 0.0 0.00 0.43 0.43 79 1098.8
20260509224311 49 157 0.0 0.0 0.00 0.43 0.43 79 1098.8
20260509223314 49 157 0.0 1.7 0.00 0.43 0.43 80 1098.6
20260509222312 49 202 0.0 0.9 0.00 0.43 0.43 80 1098.7
20260509221313 49 157 0.0 0.0 0.00 0.43 0.43 80 1098.6
20260509220312 49 157 0.9 1.7 0.00 0.43 0.43 79 1098.4
20260509215315 49 135 0.0 1.7 0.00 0.43 0.43 80 1098.5
20260509214412 48 90 0.0 0.0 0.00 0.43 0.43 81 1098.6
20260509213411 48 90 0.0 0.0 0.01 0.43 0.43 81 1098.9
20260509212413 48 90 0.0 0.0 0.02 0.43 0.43 81 1099.0
20260509212314 48 90 0.0 0.0 0.02 0.43 0.43 81 1098.9
20260509211311 48 90 0.0 0.0 0.03 0.43 0.43 81 1099.0
20260509210411 48 90 0.0 0.0 0.03 0.43 0.43 81 1099.0
20260509205414 48 112 0.0 0.0 0.04 0.43 0.43 81 1099.2
20260509204413 47 112 0.0 0.9 0.05 0.43 0.43 80 1099.5
20260509204311 47 112 0.9 1.7 0.05 0.43 0.43 80 1099.5
20260509202313 47 157 0.0 1.7 0.05 0.41 0.41 81 1099.6
20260509201315 47 112 0.0 0.9 0.05 0.40 0.40 81 1099.7
20260509200312 47 153 0.0 1.7 0.05 0.40 0.40 82 1099.7
20260509200212 47 157 0.0 1.7 0.06 0.40 0.40 81 1099.8
20260509195211 46 122 0.0 0.9 0.05 0.39 0.39 82 1099.9
20260509194215 46 157 0.0 0.0 0.05 0.38 0.38 81 1099.9
20260509193312 46 157 0.0 0.0 0.05 0.37 0.37 82 1099.8
20260509192313 46 202 0.0 0.0 0.05 0.36 0.36 81 1099.7
20260509192214 46 202 0.0 0.9 0.05 0.36 0.36 81 1099.8
20260509191216 46 112 0.0 0.9 0.05 0.35 0.35 81 1099.8
20260509191113 46 112 0.0 0.9 0.05 0.35 0.35 82 1099.9
20260509190114 45 112 0.0 0.0 0.04 0.34 0.34 82 1099.8
20260509185211 45 112 0.0 0.0 0.04 0.34 0.33 82 1100.0
20260509184213 45 112 0.0 0.0 0.04 0.33 0.33 81 1100.0
20260509183213 45 112 0.0 0.0 0.03 0.32 0.32 83 1100.1
20260509182311 45 112 0.0 0.0 0.03 0.31 0.31 83 1100.2
20260509181313 45 112 0.0 0.9 0.02 0.30 0.30 83 1100.2
20260509180312 44 112 1.7 2.6 0.03 0.30 0.30 83 1100.2
20260509175313 44 112 1.7 2.6 0.03 0.30 0.30 83 1100.3
20260509173511 44 67 0.0 0.0 0.03 0.28 0.28 83 1100.5